Location: Elaina
(34.1445°N, 106.7742°W)
Time: 12:26:51
(UTC+00:00)

NOSS 3-1 (C) - Pass Details

Date: 22 March 2026
Orbit: 618 x 1583 km, 63.4° (Epoch: 10 January)

Event Time Altitude Azimuth Distance (km) Brightness Sun altitude
Rises 10:41:41 0° 340° (NNW) 3,822 6.7 -30.2°
Reaches altitude 10° 10:44:38 10° 352° (N) 3,019 6.2 -29.7°
Maximum altitude 10:50:47 27° 49° (NE) 2,258 5.9 -28.5°
Drops below altitude 10° 10:57:57 10° 104° (ESE) 3,571 7.1 -27.1°
Sets 11:01:44 0° 115° (ESE) 4,651 7.7 -26.4°
